Time,TemperatureF,DewpointF,PressureIn,WindDirection,WindDirectionDegrees,WindSpeedMPH,WindSpeedGustMPH,Humidity,HourlyPrecipIn,Conditions,Clouds,dailyrainin,SoftwareType,DateUTC
2013-05-03 00:13:00,65.9,62.0,30.02,SSE,168,0.0,1.0,86,0.00,,,0.00,weatherlink.com 1.10,2013-05-03 05:13:00,
2013-05-03 00:29:00,65.9,62.0,30.02,SSE,168,0.0,1.0,86,0.00,,,0.00,weatherlink.com 1.10,2013-05-03 05:29:00,
2013-05-03 00:45:00,65.6,62.0,30.02,SSE,159,0.0,1.0,88,0.00,,,0.00,weatherlink.com 1.10,2013-05-03 05:45:00,
2013-05-03 01:01:00,64.7,62.0,30.02,SSE,159,0.0,0.0,91,0.00,,,0.00,weatherlink.com 1.10,2013-05-03 06:01:00,
2013-05-03 01:18:00,64.3,62.0,30.00,SSE,159,0.0,0.0,93,0.00,,,0.00,weatherlink.com 1.10,2013-05-03 06:18:00,
2013-05-03 01:34:00,64.1,62.0,30.00,SSE,159,0.0,0.0,93,0.00,,,0.00,weatherlink.com 1.10,2013-05-03 06:34:00,
2013-05-03 01:50:00,64.0,62.0,30.00,SSE,159,0.0,0.0,93,0.00,,,0.00,weatherlink.com 1.10,2013-05-03 06:50:00,
2013-05-03 02:06:00,63.9,62.0,29.99,South,187,0.0,1.0,92,0.00,,,0.00,weatherlink.com 1.10,2013-05-03 07:06:00,
2013-05-03 02:22:00,63.9,61.0,29.98,SE,132,0.0,1.0,91,0.00,,,0.00,weatherlink.com 1.10,2013-05-03 07:22:00,
2013-05-03 02:39:00,63.7,61.0,29.97,South,187,0.0,1.0,91,0.00,,,0.00,weatherlink.com 1.10,2013-05-03 07:39:00,
2013-05-03 02:55:00,64.1,60.0,29.97,South,189,0.0,3.0,88,0.00,,,0.00,weatherlink.com 1.10,2013-05-03 07:55:00,
2013-05-03 03:12:00,64.2,61.0,29.97,SSE,149,0.0,3.0,88,0.00,,,0.00,weatherlink.com 1.10,2013-05-03 08:12:00,
2013-05-03 03:28:00,63.9,60.0,29.97,SSW,199,1.0,4.0,88,0.00,,,0.00,weatherlink.com 1.10,2013-05-03 08:28:00,
2013-05-03 03:45:00,63.7,60.0,29.96,SW,217,2.0,3.0,88,0.00,,,0.00,weatherlink.com 1.10,2013-05-03 08:45:00,
2013-05-03 04:01:00,63.2,60.0,29.96,SSE,168,1.0,2.0,88,0.00,,,0.00,weatherlink.com 1.10,2013-05-03 09:01:00,
2013-05-03 04:18:00,63.2,59.0,29.96,South,189,0.0,7.0,86,0.00,,,0.00,weatherlink.com 1.10,2013-05-03 09:18:00,
2013-05-03 04:34:00,63.0,58.0,29.96,SSW,210,0.0,3.0,85,0.00,,,0.00,weatherlink.com 1.10,2013-05-03 09:34:00,
2013-05-03 04:50:00,62.6,58.0,29.96,SSE,167,0.0,2.0,86,0.00,,,0.00,weatherlink.com 1.10,2013-05-03 09:50:00,
2013-05-03 05:06:00,62.2,58.0,29.96,South,169,0.0,4.0,86,0.00,,,0.00,weatherlink.com 1.10,2013-05-03 10:06:00,
2013-05-03 05:22:00,62.6,58.0,29.96,SW,221,2.0,7.0,85,0.00,,,0.00,weatherlink.com 1.10,2013-05-03 10:22:00,
2013-05-03 05:38:00,62.6,58.0,29.96,SE,136,2.0,4.0,85,0.00,,,0.00,weatherlink.com 1.10,2013-05-03 10:38:00,
2013-05-03 05:54:00,62.6,58.0,29.96,SSW,199,0.0,2.0,85,0.00,,,0.00,weatherlink.com 1.10,2013-05-03 10:54:00,
2013-05-03 06:10:00,62.7,58.0,29.96,SW,221,3.0,4.0,84,0.00,,,0.00,weatherlink.com 1.10,2013-05-03 11:10:00,
2013-05-03 06:26:00,62.8,58.0,29.96,SSW,207,3.0,7.0,84,0.00,,,0.00,weatherlink.com 1.10,2013-05-03 11:26:00,
2013-05-03 06:44:00,62.9,58.0,29.96,SSW,202,1.0,5.0,84,0.00,,,0.00,weatherlink.com 1.10,2013-05-03 11:44:00,
2013-05-03 07:00:00,63.1,58.0,29.96,SSW,207,1.0,5.0,83,0.00,,,0.00,weatherlink.com 1.10,2013-05-03 12:00:00,
2013-05-03 07:16:00,63.5,58.0,29.96,SW,221,2.0,6.0,83,0.00,,,0.00,weatherlink.com 1.10,2013-05-03 12:16:00,
2013-05-03 07:34:00,63.9,58.0,29.96,SW,226,3.0,5.0,82,0.00,,,0.00,weatherlink.com 1.10,2013-05-03 12:34:00,
2013-05-03 07:50:00,64.2,58.0,29.95,SE,139,1.0,5.0,81,0.00,,,0.00,weatherlink.com 1.10,2013-05-03 12:50:00,
2013-05-03 08:07:00,65.1,58.0,29.95,SSW,193,2.0,7.0,79,0.00,,,0.00,weatherlink.com 1.10,2013-05-03 13:07:00,
2013-05-03 08:23:00,66.5,59.0,29.95,South,172,3.0,11.0,76,0.00,,,0.00,weatherlink.com 1.10,2013-05-03 13:23:00,
2013-05-03 08:40:00,65.9,58.0,29.95,South,190,4.0,9.0,76,0.00,,,0.00,weatherlink.com 1.10,2013-05-03 13:40:00,
2013-05-03 08:56:00,65.7,58.0,29.94,South,187,7.0,12.0,76,0.00,,,0.00,weatherlink.com 1.10,2013-05-03 13:56:00,
2013-05-03 09:12:00,65.9,58.0,29.94,SSW,202,5.0,11.0,75,0.00,,,0.00,weatherlink.com 1.10,2013-05-03 14:12:00,
2013-05-03 09:28:00,66.4,58.0,29.93,South,180,3.0,11.0,74,0.00,,,0.00,weatherlink.com 1.10,2013-05-03 14:28:00,
2013-05-03 09:45:00,67.0,58.0,29.93,East,82,3.0,9.0,74,0.00,,,0.00,weatherlink.com 1.10,2013-05-03 14:45:00,
2013-05-03 10:01:00,67.7,58.0,29.93,SW,214,2.0,10.0,72,0.00,,,0.00,weatherlink.com 1.10,2013-05-03 15:01:00,
2013-05-03 10:17:00,68.4,59.0,29.92,ENE,72,5.0,10.0,73,0.00,,,0.00,weatherlink.com 1.10,2013-05-03 15:17:00,
2013-05-03 10:33:00,68.7,59.0,29.92,SSW,207,2.0,9.0,70,0.00,,,0.00,weatherlink.com 1.10,2013-05-03 15:33:00,
2013-05-03 10:49:00,69.4,59.0,29.92,SSW,211,5.0,11.0,70,0.00,,,0.00,weatherlink.com 1.10,2013-05-03 15:49:00,
2013-05-03 11:05:00,70.8,59.0,29.91,South,180,7.0,14.0,66,0.00,,,0.00,weatherlink.com 1.10,2013-05-03 16:05:00,
2013-05-03 11:21:00,72.0,59.0,29.91,SE,144,3.0,8.0,64,0.00,,,0.00,weatherlink.com 1.10,2013-05-03 16:21:00,
2013-05-03 11:39:00,73.2,59.0,29.89,SSW,195,5.0,13.0,62,0.00,,,0.00,weatherlink.com 1.10,2013-05-03 16:39:00,
2013-05-03 11:55:00,73.3,58.0,29.89,SW,224,4.0,14.0,59,0.00,,,0.00,weatherlink.com 1.10,2013-05-03 16:55:00,
2013-05-03 12:11:00,73.1,58.0,29.88,SE,134,5.0,11.0,59,0.00,,,0.00,weatherlink.com 1.10,2013-05-03 17:11:00,
2013-05-03 12:27:00,74.3,59.0,29.87,East,89,6.0,14.0,59,0.00,,,0.00,weatherlink.com 1.10,2013-05-03 17:27:00,
2013-05-03 12:44:00,73.3,58.0,29.87,SSE,161,2.0,13.0,59,0.00,,,0.00,weatherlink.com 1.10,2013-05-03 17:44:00,
2013-05-03 13:00:00,73.6,58.0,29.86,SW,230,6.0,13.0,59,0.00,,,0.00,weatherlink.com 1.10,2013-05-03 18:00:00,
2013-05-03 13:16:00,75.5,59.0,29.85,SSE,153,2.0,12.0,57,0.00,,,0.00,weatherlink.com 1.10,2013-05-03 18:16:00,
2013-05-03 13:34:00,76.0,58.0,29.85,SW,227,6.0,16.0,54,0.00,,,0.00,weatherlink.com 1.10,2013-05-03 18:34:00,
2013-05-03 13:50:00,75.6,58.0,29.85,SSW,202,4.0,11.0,55,0.00,,,0.00,weatherlink.com 1.10,2013-05-03 18:50:00,
2013-05-03 14:06:00,75.5,58.0,29.84,SE,130,5.0,12.0,54,0.00,,,0.00,weatherlink.com 1.10,2013-05-03 19:06:00,
2013-05-03 14:22:00,75.8,59.0,29.84,SSW,205,7.0,14.0,57,0.00,,,0.00,weatherlink.com 1.10,2013-05-03 19:22:00,
2013-05-03 14:40:00,75.6,57.0,29.83,SSE,157,4.0,13.0,53,0.00,,,0.00,weatherlink.com 1.10,2013-05-03 19:40:00,
2013-05-03 14:56:00,75.0,58.0,29.82,SSE,159,3.0,13.0,56,0.00,,,0.00,weatherlink.com 1.10,2013-05-03 19:56:00,
2013-05-03 15:12:00,74.6,58.0,29.82,SW,217,4.0,13.0,56,0.00,,,0.00,weatherlink.com 1.10,2013-05-03 20:12:00,
2013-05-03 15:28:00,74.8,58.0,29.81,SW,219,8.0,13.0,55,0.00,,,0.00,weatherlink.com 1.10,2013-05-03 20:28:00,
2013-05-03 15:45:00,74.8,58.0,29.81,SSW,203,5.0,12.0,56,0.00,,,0.00,weatherlink.com 1.10,2013-05-03 20:45:00,
2013-05-03 16:01:00,74.7,57.0,29.80,SSE,150,4.0,10.0,55,0.00,,,0.00,weatherlink.com 1.10,2013-05-03 21:01:00,
2013-05-03 16:17:00,75.2,58.0,29.79,South,179,2.0,11.0,55,0.00,,,0.00,weatherlink.com 1.10,2013-05-03 21:17:00,
2013-05-03 16:35:00,74.8,58.0,29.79,WSW,244,9.0,15.0,55,0.00,,,0.00,weatherlink.com 1.10,2013-05-03 21:35:00,
2013-05-03 16:51:00,74.3,58.0,29.79,SSE,163,3.0,11.0,56,0.00,,,0.00,weatherlink.com 1.10,2013-05-03 21:51:00,
2013-05-03 17:07:00,73.9,56.0,29.78,SW,236,3.0,16.0,54,0.00,,,0.00,weatherlink.com 1.10,2013-05-03 22:07:00,
2013-05-03 17:24:00,73.2,57.0,29.79,WSW,250,6.0,15.0,56,0.00,,,0.00,weatherlink.com 1.10,2013-05-03 22:24:00,
2013-05-03 17:41:00,72.8,57.0,29.79,SSE,157,3.0,12.0,57,0.00,,,0.00,weatherlink.com 1.10,2013-05-03 22:41:00,
2013-05-03 17:58:00,72.3,58.0,29.79,SW,221,1.0,11.0,60,0.00,,,0.00,weatherlink.com 1.10,2013-05-03 22:58:00,
2013-05-03 18:14:00,67.0,59.0,29.79,SW,232,5.0,15.0,76,0.00,,,0.00,weatherlink.com 1.10,2013-05-03 23:14:00,
2013-05-03 18:30:00,67.3,59.0,29.79,ESE,115,1.0,10.0,75,0.00,,,0.00,weatherlink.com 1.10,2013-05-03 23:30:00,
2013-05-03 18:47:00,68.8,57.0,29.79,SSW,205,2.0,13.0,67,0.00,,,0.00,weatherlink.com 1.10,2013-05-03 23:47:00,
2013-05-03 19:03:00,68.4,56.0,29.80,SW,215,12.0,18.0,64,0.00,,,0.00,weatherlink.com 1.10,2013-05-04 00:03:00,
2013-05-03 19:19:00,68.1,55.0,29.80,SE,145,7.0,12.0,63,0.00,,,0.00,weatherlink.com 1.10,2013-05-04 00:19:00,
2013-05-03 19:38:00,67.6,56.0,29.81,SSW,199,5.0,13.0,66,0.00,,,0.00,weatherlink.com 1.10,2013-05-04 00:38:00,
2013-05-03 19:53:00,67.3,56.0,29.82,SSW,205,6.0,12.0,66,0.00,,,0.00,weatherlink.com 1.10,2013-05-04 00:53:00,
2013-05-03 20:10:00,66.4,56.0,29.82,SSE,153,7.0,11.0,69,0.00,,,0.00,weatherlink.com 1.10,2013-05-04 01:10:00,
2013-05-03 20:26:00,58.0,53.0,29.86,East,82,1.0,11.0,84,0.03,,,0.03,weatherlink.com 1.10,2013-05-04 01:26:00,
2013-05-03 20:43:00,52.8,50.0,29.87,WSW,238,0.0,5.0,90,0.04,,,0.04,weatherlink.com 1.10,2013-05-04 01:43:00,
2013-05-03 21:00:00,51.5,49.0,29.87,SW,232,2.0,4.0,92,0.04,,,0.04,weatherlink.com 1.10,2013-05-04 02:00:00,
2013-05-03 21:16:00,51.0,49.0,29.87,SW,233,0.0,1.0,93,0.04,,,0.05,weatherlink.com 1.10,2013-05-04 02:16:00,
2013-05-03 21:34:00,50.8,49.0,29.88,WSW,237,0.0,1.0,94,0.03,,,0.07,weatherlink.com 1.10,2013-05-04 02:34:00,
2013-05-03 21:50:00,50.1,48.0,29.89,WSW,246,0.0,3.0,94,0.04,,,0.08,weatherlink.com 1.10,2013-05-04 02:50:00,
2013-05-03 22:06:00,49.8,48.0,29.89,SE,134,1.0,6.0,94,0.06,,,0.10,weatherlink.com 1.10,2013-05-04 03:06:00,
2013-05-03 22:22:00,48.4,47.0,29.89,SW,215,1.0,7.0,94,0.05,,,0.11,weatherlink.com 1.10,2013-05-04 03:22:00,
2013-05-03 22:39:00,47.6,46.0,29.91,ESE,109,3.0,6.0,94,0.04,,,0.11,weatherlink.com 1.10,2013-05-04 03:39:00,
2013-05-03 22:55:00,47.2,46.0,29.91,SW,223,0.0,3.0,95,0.04,,,0.12,weatherlink.com 1.10,2013-05-04 03:55:00,
2013-05-03 23:11:00,47.0,46.0,29.92,SSW,196,1.0,2.0,95,0.03,,,0.13,weatherlink.com 1.10,2013-05-04 04:11:00,
2013-05-03 23:27:00,46.0,45.0,29.92,South,181,2.0,4.0,95,0.02,,,0.13,weatherlink.com 1.10,2013-05-04 04:27:00,
2013-05-03 23:45:00,45.6,44.0,29.91,West,275,0.0,3.0,94,0.03,,,0.14,weatherlink.com 1.10,2013-05-04 04:45:00,